星链-2076 (STARLINK-2076 )

导读

STARLINK-2076是美国SpaceX公司星链(Starlink)星座计划中的一颗低轨卫星,于2021年1月20日发射升空。星链项目旨在通过部署数千颗低轨卫星,为全球尤其是偏远地区提供高速低延迟的卫星互联网服务。作为星链星座的组成部分,该卫星参与构建全球覆盖的通信网络,推动卫星互联网的普及,但也引发了关于太空拥堵与天文观测影响的讨论。

Basic Information
目录编号:
47362
目录名称:
STARLINK-2076
国际标识:
2021-005P
轨道中心:
EARTH
卫星名称:
星链-2076
卫星全名:
星链-2076 (STARLINK-2076 )
卫星状态:
在轨 (已飞行2060 天)
发射日期:
2021-01-20 UTC
国别 :
美国 (US)
星等 :
--
This satellite is enrolled in the Space Conjunction Data Service (SCDS) and the current flight risk assessment level is: No High Risk
Orbit Information
数据来源 国际轨道数据 AOE轨道数据
星历时间 2026-09-10T16:10:03+0800
1天前
查看轨道信息
2026-09-10T07:00:00+0800
1天前
查看轨道信息
半长轴 6813.839km 6813.997km
偏心率 0.0001189 0.0001829
轨道倾角 53.154° 53.154°
近地点辐角 12.060° 17.038°
升交点赤经 277.423° 279.237°
平近点角 348.044° 19.332°
近地点 434.891km 434.613km
远地点 436.513km 437.107km
周期 93.293分钟 93.296分钟
每日圈数 15.435298 15.43476
Detailed Information
固有亮度:
5
最大亮度:
2.5
卫星平台:
Starlink V1.0
覆盖范围:
全球
运营商:
太空探索技术公司
运营商所在国:
美国
制造商(研发单位):
太空探索技术公司
制造商所在国:
美国
使用方式:
暂无
Satellite Introduction
星链(Starlink)计划是由太空探索技术公司(SpaceX)提出的一个巨型低轨卫星互联网星座项目,计划在2019年至2024年间在太空搭建由约1.2万颗卫星组成的“星链”网络,其中1584颗将部署在地球上空550千米处的近地轨道,并从2020年开始工作。该卫星仍在工作。
2D Orbit Map
3D Orbit Map
Orbit Altitude Analysis Chart
Orbit Inclination Analysis Chart
Orbit Comprehensive Analysis Chart
View Comprehensive Chart
Miss Distance Evolution Trend with All Objects
Collision Probability Evolution Trend with All Objects